Flag for Germany Weather past 2 weeks in Freital, Saxony, Germany

Now
82 °F

Overcast.


Feels Like: 81 °F
Forecast: 64 / 83 °F
Wind: 3 mph from Southeast

Location: Dresden-Klotzsche

Current Time: Jul 26, 2014 at 5:27:51 PM

Latest Report: Jul 26, 2014 at 4:00 PM


Visibility: 25 mi

Pressure: 29.87 "Hg

Humidity: 37%

Dew point: 53 °F

Location of FreitalLocation

Historic Weather in Freital — Graph

°F

Freital temperature yesterday

Maximum temperature yesterday: 69 °F (at 6:00 PM)
Minimum temperature yesterday: 61 °F (at 2:00 AM)
Average temperature yesterday: 65 °F

Past Weeks' High & Low Weather Summary

 TemperatureHumidityPressure
High90 °F (Jul 20, 4:00 PM)98% (Jul 25, 6:00 AM)30.18 "Hg (Jul 25, 6:00 AM)
Low52 °F (Jul 13, 4:00 AM)25% (Jul 20, 4:00 PM)29.73 "Hg (Jul 21, 5:00 AM)
Average70 °F68%29.95 "Hg
* Reported Jul 11 4:00 PM — Jul 26 4:00 PM, Freital, Weather by CustomWeather, © 2014

Note: Actual official high and low records may vary slightly from our data, if they occured in-between our weather recording intervals... More about our weather records

Advertising

Freital weather history for previous 24 hours

 ConditionsComfort  
Time TempWeatherWind HumidityBarometerVisibility
4:00 PM
Jul 26
82 °FOvercast.3 mph37%29.87 "Hg25 mi
3:00 PM82 °FOvercast.5 mph34%29.88 "Hg25 mi
2:00 PM81 °FPartly sunny.5 mph34%29.89 "Hg19 mi
1:00 PM81 °FPartly sunny.5 mph39%29.90 "Hg19 mi
12:00 PM79 °FScattered clouds.5 mph46%29.91 "Hg19 mi
11:00 AM77 °FScattered clouds.3 mph61%29.92 "Hg19 mi
10:00 AM72 °FPartly sunny.1 mph71%29.93 "Hg19 mi
9:00 AM67 °FPartly sunny.2 mph81%29.94 "Hg19 mi
8:00 AM64 °FScattered clouds.2 mph89%29.94 "Hg16 mi
7:00 AM61 °FFog.1 mph97%29.94 "Hg1 mi
6:00 AM60 °FFog.1 mph97%29.93 "Hg2 mi
5:00 AM61 °FFog.2 mph96%29.93 "Hg2 mi
4:00 AM61 °FPassing clouds.2 mph94%29.92 "Hg9 mi
3:00 AM61 °FClear.2 mph93%29.93 "Hg11 mi
2:00 AM61 °FPassing clouds.1 mph91%29.93 "Hg11 mi
1:00 AM63 °FPassing clouds.2 mph91%29.93 "Hg14 mi
12:00 AM63 °FPassing clouds.2 mph90%29.95 "Hg15 mi
11:00 PM
Jul 25
63 °FPassing clouds.2 mph90%29.93 "Hg16 mi
10:00 PM65 °FPassing clouds.2 mph86%29.93 "Hg17 mi
9:00 PM67 °FScattered clouds.3 mph83%29.92 "Hg19 mi
8:00 PM68 °FScattered clouds.2 mph78%29.91 "Hg22 mi
7:00 PM69 °FPartly sunny.2 mph77%29.91 "Hg22 mi
6:00 PM69 °FOvercast.2 mph74%29.90 "Hg19 mi
5:00 PM69 °FOvercast.2 mph74%29.91 "Hg19 mi
Weather by CustomWeather, © 2014

See weather overviewHow to use our weather pages